This is the latest recevied weather packets stored in our database for station/object YM7KGL-1. If no packets are shown the sender has not sent any weather packets the latest 10 day(s).
| Time | Temp. | Humidity | Pressure | Rain* | Wind** | Luminosity | Snow |
|---|---|---|---|---|---|---|---|
| 1777618322 | 17.22° C | 49% | 1011.8 hPa | - | - | - | - |
| 1777617422 | 17.22° C | 49% | 1011.7 hPa | - | - | - | - |
| 1777616521 | 17.22° C | 50% | 1011.6 hPa | - | - | - | - |
| 1777615621 | 16.67° C | 50% | 1011.5 hPa | - | - | - | - |
| 1777614720 | 16.67° C | 50% | 1011.5 hPa | - | - | - | - |
| 1777613914 | 16.67° C | 49% | 1011.7 hPa | - | - | - | - |
| 1777613046 | 16.11° C | 49% | 1011.4 hPa | - | - | - | - |
| 1777613014 | 16.67° C | 50% | 1011.6 hPa | - | - | - | - |
| 1777612114 | 16.67° C | 50% | 1011.5 hPa | - | - | - | - |
| 1777611213 | 16.67° C | 50% | 1011.3 hPa | - | - | - | - |
| 1777610313 | 16.11° C | 49% | 1011.4 hPa | - | - | - | - |
| 1777609987 | 16.11° C | 50% | 1011.5 hPa | - | - | - | - |
| 1777609086 | 15.56° C | 50% | 1011.1 hPa | - | - | - | - |
| 1777608186 | 15.56° C | 50% | 1011.3 hPa | - | - | - | - |
| 1777607285 | 15.56° C | 50% | 1011.4 hPa | - | - | - | - |
| 1777606486 | 15° C | 50% | 1011.5 hPa | - | - | - | - |
| 1777606385 | 15° C | 50% | 1011.5 hPa | - | - | - | - |
| 1777606240 | 15° C | 50% | 1011.4 hPa | - | - | - | - |
| 1777605339 | 15° C | 50% | 1011.5 hPa | - | - | - | - |
| 1777604439 | 15° C | 50% | 1011.5 hPa | - | - | - | - |
| 1777603538 | 15° C | 50% | 1011.7 hPa | - | - | - | - |
| 1777602904 | 15° C | 50% | 1011.9 hPa | - | - | - | - |
| 1777602638 | 15° C | 50% | 1011.9 hPa | - | - | - | - |
| 1777601837 | 15° C | 50% | 1012.2 hPa | - | - | - | - |
| 1777600937 | 15° C | 50% | 1012.4 hPa | - | - | - | - |
* Rain since midnight (hover to see other rain measurements)
** Current wind speed in m/s (hover to see current wind gust speed)